Location: Zagreb
(45.8000°N, 16.0000°E)
Time: 15:22:32
(UTC+02:00)

Transit 2A Rocket - Pass Details

Date: 09 August 2022
Orbit: 593 x 907 km, 66.7° (Epoch: 25 September)

Event Time Altitude Azimuth Distance (km) Brightness Sun altitude
Rises 03:05:59 0° 336° (NNW) 2,843 8.4 -22.2°
Reaches altitude 10° 03:08:54 10° 357° (N) 1,950 7.8 -21.9°
Maximum altitude 03:11:48 17° 39° (NE) 1,558 7.6 -21.6°
Drops below altitude 10° 03:14:46 10° 81° (E) 2,005 7.7 -21.4°
Sets 03:17:49 0° 101° (ESE) 2,959 8.4 -21.0°
